Location: Beaurecueil
(43.5122°N, 5.5450°E)
Time: 13:31:17
(UTC+00:00)

Cosmos 2026 Rocket - Pass Details

Date: 18 September 2020
Orbit: 940 x 1000 km, 82.9° (Epoch: 29 October)

Event Time Altitude Azimuth Distance (km) Brightness Sun altitude
Rises 19:57:16 0° 354° (N) 3,716 7.5 -24.4°
Reaches altitude 10° 19:59:49 10° 357° (N) 2,769 6.7 -24.8°
Maximum altitude 20:06:10 67° 80° (E) 1,079 3.9 -25.8°
Enters shadow 20:06:55 62° 118° (ESE) 1,121 3.9 -25.9°
